Time,TemperatureF,DewpointF,PressureIn,WindDirection,WindDirectionDegrees,WindSpeedMPH,WindSpeedGustMPH,Humidity,HourlyPrecipIn,Conditions,Clouds,dailyrainin,SoftwareType,DateUTC
2013-05-20 00:00:00,67.6,66.1,30.04,North,357,0.0,0.0,95,0.00,,,0.61,Wunderground v.1.13,2013-05-20 04:00:00,
2013-05-20 00:02:00,67.6,66.1,30.04,North,357,0.0,0.0,95,0.00,,,0.00,Wunderground v.1.13,2013-05-20 04:02:00,
2013-05-20 00:06:00,67.4,65.9,30.04,North,357,0.0,0.0,95,0.00,,,0.00,Wunderground v.1.13,2013-05-20 04:06:00,
2013-05-20 00:08:00,67.4,65.9,30.04,North,357,0.0,0.0,95,0.00,,,0.00,Wunderground v.1.13,2013-05-20 04:08:00,
2013-05-20 00:12:00,67.4,65.9,30.04,North,357,0.0,0.0,95,0.00,,,0.00,Wunderground v.1.13,2013-05-20 04:12:00,
2013-05-20 00:18:00,67.4,65.9,30.03,North,357,0.0,0.0,95,0.00,,,0.00,Wunderground v.1.13,2013-05-20 04:18:00,
2013-05-20 00:24:00,67.4,65.9,30.03,North,357,0.0,0.0,95,0.00,,,0.00,Wunderground v.1.13,2013-05-20 04:24:00,
2013-05-20 00:30:00,67.4,66.2,30.03,North,357,0.0,0.0,96,0.00,,,0.00,Wunderground v.1.13,2013-05-20 04:30:00,
2013-05-20 00:36:00,67.4,66.2,30.03,North,357,0.0,0.0,96,0.00,,,0.00,Wunderground v.1.13,2013-05-20 04:36:00,
2013-05-20 00:42:00,67.4,66.2,30.03,North,357,0.0,0.0,96,0.00,,,0.00,Wunderground v.1.13,2013-05-20 04:42:00,
2013-05-20 00:48:00,67.4,66.2,30.03,North,357,0.0,0.0,96,0.00,,,0.00,Wunderground v.1.13,2013-05-20 04:48:00,
2013-05-20 00:54:00,67.4,66.2,30.03,North,357,0.0,0.0,96,0.00,,,0.00,Wunderground v.1.13,2013-05-20 04:54:00,
2013-05-20 01:00:00,67.4,66.2,30.03,North,357,0.0,0.0,96,0.00,,,0.01,Wunderground v.1.13,2013-05-20 05:00:00,
2013-05-20 01:06:00,67.4,66.2,30.03,North,357,0.0,0.0,96,0.00,,,0.01,Wunderground v.1.13,2013-05-20 05:06:00,
2013-05-20 01:12:00,67.4,66.2,30.03,North,357,0.0,0.0,96,0.00,,,0.01,Wunderground v.1.13,2013-05-20 05:12:00,
2013-05-20 01:18:00,67.4,66.2,30.02,North,357,0.0,0.0,96,0.00,,,0.01,Wunderground v.1.13,2013-05-20 05:18:00,
2013-05-20 01:24:00,67.4,66.2,30.02,North,357,0.0,0.0,96,0.00,,,0.01,Wunderground v.1.13,2013-05-20 05:24:00,
2013-05-20 01:30:00,67.4,66.2,30.02,North,357,0.0,0.0,96,0.00,,,0.01,Wunderground v.1.13,2013-05-20 05:30:00,
2013-05-20 01:36:00,67.4,66.2,30.02,North,357,0.0,0.0,96,0.00,,,0.01,Wunderground v.1.13,2013-05-20 05:36:00,
2013-05-20 01:42:00,67.4,66.2,30.02,North,357,0.0,0.0,96,0.00,,,0.01,Wunderground v.1.13,2013-05-20 05:42:00,
2013-05-20 01:48:00,67.4,66.2,30.02,North,357,0.0,0.0,96,0.00,,,0.01,Wunderground v.1.13,2013-05-20 05:48:00,
2013-05-20 01:54:00,67.6,66.4,30.02,North,357,0.0,0.0,96,0.00,,,0.01,Wunderground v.1.13,2013-05-20 05:54:00,
2013-05-20 02:00:00,67.6,66.4,30.02,North,357,0.0,0.0,96,0.00,,,0.01,Wunderground v.1.13,2013-05-20 06:00:00,
2013-05-20 02:06:00,67.6,66.4,30.01,North,357,0.0,0.0,96,0.00,,,0.01,Wunderground v.1.13,2013-05-20 06:06:00,
2013-05-20 02:12:00,67.6,66.4,30.01,North,357,0.0,0.0,96,0.00,,,0.01,Wunderground v.1.13,2013-05-20 06:12:00,
2013-05-20 02:18:00,67.6,66.4,30.01,North,357,0.0,0.0,96,0.00,,,0.01,Wunderground v.1.13,2013-05-20 06:18:00,
2013-05-20 02:24:00,67.6,66.4,30.01,North,357,0.0,0.0,96,0.00,,,0.01,Wunderground v.1.13,2013-05-20 06:24:00,
2013-05-20 02:30:00,67.6,66.4,30.01,North,357,0.0,0.0,96,0.00,,,0.01,Wunderground v.1.13,2013-05-20 06:30:00,
2013-05-20 02:36:00,67.6,66.4,30.01,North,357,0.0,0.0,96,0.00,,,0.01,Wunderground v.1.13,2013-05-20 06:36:00,
2013-05-20 02:42:00,67.6,66.4,30.01,North,357,0.0,0.0,96,0.00,,,0.01,Wunderground v.1.13,2013-05-20 06:42:00,
2013-05-20 02:48:00,67.6,66.7,30.01,North,357,0.0,0.0,97,0.00,,,0.01,Wunderground v.1.13,2013-05-20 06:48:00,
2013-05-20 02:54:00,67.6,66.7,30.01,North,357,0.0,0.0,97,0.00,,,0.01,Wunderground v.1.13,2013-05-20 06:54:00,
2013-05-20 03:00:00,67.6,66.7,30.01,North,357,0.0,0.0,97,0.00,,,0.01,Wunderground v.1.13,2013-05-20 07:00:00,
2013-05-20 03:06:00,67.6,66.7,30.01,North,357,0.0,0.0,97,0.00,,,0.01,Wunderground v.1.13,2013-05-20 07:06:00,
2013-05-20 03:12:00,67.6,66.4,30.01,North,357,0.0,0.0,96,0.00,,,0.01,Wunderground v.1.13,2013-05-20 07:12:00,
2013-05-20 03:18:00,67.6,66.4,30.00,North,357,0.0,0.0,96,0.00,,,0.01,Wunderground v.1.13,2013-05-20 07:18:00,
2013-05-20 03:24:00,67.6,66.7,30.00,North,357,0.0,0.0,97,0.00,,,0.01,Wunderground v.1.13,2013-05-20 07:24:00,
2013-05-20 03:30:00,67.6,66.7,30.00,North,357,0.0,0.0,97,0.00,,,0.01,Wunderground v.1.13,2013-05-20 07:30:00,
2013-05-20 03:36:00,67.6,66.4,30.00,North,357,0.0,0.0,96,0.00,,,0.01,Wunderground v.1.13,2013-05-20 07:36:00,
2013-05-20 03:42:00,67.6,66.4,30.00,North,357,0.0,0.0,96,0.00,,,0.01,Wunderground v.1.13,2013-05-20 07:42:00,
2013-05-20 03:48:00,67.6,66.4,30.00,North,357,0.0,0.0,96,0.00,,,0.01,Wunderground v.1.13,2013-05-20 07:48:00,
2013-05-20 03:54:00,67.6,66.4,30.00,North,357,0.0,0.0,96,0.19,,,0.03,Wunderground v.1.13,2013-05-20 07:54:00,
2013-05-20 04:00:00,67.4,66.2,30.00,North,357,0.0,0.0,96,0.06,,,0.03,Wunderground v.1.13,2013-05-20 08:00:00,
2013-05-20 04:06:00,67.4,66.2,30.00,North,357,0.0,0.0,96,0.04,,,0.03,Wunderground v.1.13,2013-05-20 08:06:00,
2013-05-20 04:12:00,67.4,66.2,30.00,North,357,0.0,0.0,96,0.00,,,0.03,Wunderground v.1.13,2013-05-20 08:12:00,
2013-05-20 04:18:00,67.4,66.2,30.00,North,357,0.0,0.0,96,0.00,,,0.04,Wunderground v.1.13,2013-05-20 08:18:00,
2013-05-20 04:24:00,67.4,66.2,30.00,North,357,0.0,0.0,96,0.00,,,0.04,Wunderground v.1.13,2013-05-20 08:24:00,
2013-05-20 04:30:00,67.4,66.5,30.00,North,357,0.0,0.0,97,0.00,,,0.04,Wunderground v.1.13,2013-05-20 08:30:00,
2013-05-20 04:36:00,67.6,66.7,30.00,North,357,0.0,0.0,97,0.00,,,0.04,Wunderground v.1.13,2013-05-20 08:36:00,
2013-05-20 04:42:00,67.6,66.7,30.00,North,357,0.0,0.0,97,0.00,,,0.04,Wunderground v.1.13,2013-05-20 08:42:00,
2013-05-20 04:48:00,67.6,66.7,30.00,North,357,0.0,0.0,97,0.00,,,0.04,Wunderground v.1.13,2013-05-20 08:48:00,
2013-05-20 04:54:00,67.6,66.7,30.00,North,357,0.0,0.0,97,0.00,,,0.04,Wunderground v.1.13,2013-05-20 08:54:00,
2013-05-20 05:00:00,67.6,66.7,30.00,North,357,0.0,0.0,97,0.00,,,0.04,Wunderground v.1.13,2013-05-20 09:00:00,
2013-05-20 05:06:00,67.8,66.9,30.00,North,357,0.0,0.0,97,0.00,,,0.04,Wunderground v.1.13,2013-05-20 09:06:00,
2013-05-20 05:12:00,67.8,66.9,30.00,North,357,0.0,0.0,97,0.00,,,0.04,Wunderground v.1.13,2013-05-20 09:12:00,
2013-05-20 05:18:00,67.8,66.9,30.00,North,357,0.0,0.0,97,0.00,,,0.04,Wunderground v.1.13,2013-05-20 09:18:00,
2013-05-20 05:24:00,67.8,66.9,30.00,North,357,0.0,0.0,97,0.45,,,0.07,Wunderground v.1.13,2013-05-20 09:24:00,
2013-05-20 05:30:00,67.8,66.9,30.00,North,357,0.0,0.0,97,0.16,,,0.09,Wunderground v.1.13,2013-05-20 09:30:00,
2013-05-20 05:36:00,67.8,66.9,30.01,North,357,0.0,0.0,97,0.11,,,0.10,Wunderground v.1.13,2013-05-20 09:36:00,
2013-05-20 05:42:00,67.8,66.9,30.01,North,357,0.0,0.0,97,0.12,,,0.11,Wunderground v.1.13,2013-05-20 09:42:00,
2013-05-20 05:48:00,67.8,66.9,30.01,North,357,0.0,0.0,97,0.07,,,0.11,Wunderground v.1.13,2013-05-20 09:48:00,
2013-05-20 05:54:00,67.8,66.9,30.01,North,357,0.0,0.0,97,0.06,,,0.12,Wunderground v.1.13,2013-05-20 09:54:00,
2013-05-20 06:00:00,67.8,66.9,30.01,North,357,0.0,0.0,97,0.05,,,0.12,Wunderground v.1.13,2013-05-20 10:00:00,
2013-05-20 06:06:00,67.6,66.7,30.01,North,357,0.0,0.0,97,0.00,,,0.12,Wunderground v.1.13,2013-05-20 10:06:00,
2013-05-20 06:12:00,67.6,66.7,30.01,North,357,0.0,0.0,97,0.00,,,0.12,Wunderground v.1.13,2013-05-20 10:12:00,
2013-05-20 06:18:00,67.6,66.7,30.01,North,357,0.0,0.0,97,0.00,,,0.12,Wunderground v.1.13,2013-05-20 10:18:00,
2013-05-20 06:24:00,67.6,66.7,30.01,North,357,0.0,0.0,97,0.00,,,0.12,Wunderground v.1.13,2013-05-20 10:24:00,
2013-05-20 06:30:00,67.6,66.7,30.01,North,357,0.0,0.0,97,0.00,,,0.12,Wunderground v.1.13,2013-05-20 10:30:00,
2013-05-20 06:36:00,67.6,66.7,30.02,North,357,0.0,0.0,97,0.00,,,0.13,Wunderground v.1.13,2013-05-20 10:36:00,
2013-05-20 06:42:00,67.4,66.5,30.02,North,357,0.0,0.0,97,0.00,,,0.13,Wunderground v.1.13,2013-05-20 10:42:00,
2013-05-20 06:48:00,67.4,66.5,30.02,North,357,0.0,0.0,97,0.05,,,0.14,Wunderground v.1.13,2013-05-20 10:48:00,
2013-05-20 06:54:00,67.4,66.5,30.02,North,357,0.0,0.0,97,0.05,,,0.14,Wunderground v.1.13,2013-05-20 10:54:00,
2013-05-20 07:00:00,67.4,66.5,30.02,North,357,0.0,0.0,97,0.04,,,0.14,Wunderground v.1.13,2013-05-20 11:00:00,
2013-05-20 07:06:00,67.4,66.5,30.03,North,357,0.0,0.0,97,0.00,,,0.14,Wunderground v.1.13,2013-05-20 11:06:00,
2013-05-20 07:12:00,67.4,66.5,30.03,North,357,0.0,0.0,97,0.00,,,0.14,Wunderground v.1.13,2013-05-20 11:12:00,
2013-05-20 07:18:00,67.4,66.5,30.03,North,357,0.0,0.0,97,0.00,,,0.14,Wunderground v.1.13,2013-05-20 11:18:00,
2013-05-20 07:24:00,67.6,66.7,30.03,North,357,0.0,0.0,97,0.00,,,0.14,Wunderground v.1.13,2013-05-20 11:24:00,
2013-05-20 07:30:00,67.6,66.7,30.03,North,357,0.0,0.0,97,0.00,,,0.15,Wunderground v.1.13,2013-05-20 11:30:00,
2013-05-20 07:36:00,67.6,66.7,30.04,North,357,0.0,0.0,97,0.00,,,0.15,Wunderground v.1.13,2013-05-20 11:36:00,
2013-05-20 07:42:00,67.6,66.7,30.04,North,357,0.0,0.0,97,0.00,,,0.15,Wunderground v.1.13,2013-05-20 11:42:00,
2013-05-20 07:48:00,67.8,66.9,30.04,North,357,0.0,0.0,97,0.00,,,0.15,Wunderground v.1.13,2013-05-20 11:48:00,
2013-05-20 07:54:00,67.8,66.9,30.04,North,357,0.0,0.0,97,0.00,,,0.15,Wunderground v.1.13,2013-05-20 11:54:00,
2013-05-20 08:00:00,67.9,67.0,30.04,North,357,0.0,0.0,97,0.00,,,0.15,Wunderground v.1.13,2013-05-20 12:00:00,
2013-05-20 08:06:00,67.9,67.0,30.04,North,357,0.0,0.0,97,0.00,,,0.15,Wunderground v.1.13,2013-05-20 12:06:00,
2013-05-20 08:12:00,68.1,67.2,30.04,North,357,0.0,0.0,97,0.00,,,0.15,Wunderground v.1.13,2013-05-20 12:12:00,
2013-05-20 08:18:00,68.1,67.2,30.04,North,357,0.0,0.0,97,0.00,,,0.15,Wunderground v.1.13,2013-05-20 12:18:00,
2013-05-20 08:24:00,68.1,67.2,30.04,North,357,0.0,0.0,97,0.00,,,0.15,Wunderground v.1.13,2013-05-20 12:24:00,
2013-05-20 08:30:00,68.1,67.2,30.04,North,357,0.0,0.0,97,0.00,,,0.15,Wunderground v.1.13,2013-05-20 12:30:00,
2013-05-20 08:36:00,68.1,67.2,30.04,North,357,0.0,0.0,97,0.00,,,0.15,Wunderground v.1.13,2013-05-20 12:36:00,
2013-05-20 08:42:00,68.1,67.2,30.04,North,357,0.0,0.0,97,0.00,,,0.15,Wunderground v.1.13,2013-05-20 12:42:00,
2013-05-20 08:48:00,68.3,67.4,30.04,North,357,0.0,0.0,97,0.00,,,0.15,Wunderground v.1.13,2013-05-20 12:48:00,
2013-05-20 08:54:00,68.3,67.4,30.04,North,357,0.0,0.0,97,0.00,,,0.15,Wunderground v.1.13,2013-05-20 12:54:00,
2013-05-20 09:00:00,68.6,67.7,30.04,North,357,0.0,0.0,97,0.00,,,0.15,Wunderground v.1.13,2013-05-20 13:00:00,
2013-05-20 09:06:00,69.1,68.2,30.04,North,357,0.0,0.0,97,0.00,,,0.15,Wunderground v.1.13,2013-05-20 13:06:00,
2013-05-20 09:12:00,69.3,68.4,30.04,North,357,0.0,0.0,97,0.00,,,0.15,Wunderground v.1.13,2013-05-20 13:12:00,
2013-05-20 09:18:00,69.3,68.4,30.04,North,357,0.0,0.0,97,0.00,,,0.15,Wunderground v.1.13,2013-05-20 13:18:00,
2013-05-20 09:24:00,69.4,68.5,30.04,North,357,0.0,0.0,97,0.00,,,0.15,Wunderground v.1.13,2013-05-20 13:24:00,
2013-05-20 09:30:00,69.6,69.0,30.04,North,357,0.0,0.0,98,0.00,,,0.15,Wunderground v.1.13,2013-05-20 13:30:00,
2013-05-20 09:36:00,69.6,68.7,30.03,North,357,0.0,0.0,97,0.00,,,0.15,Wunderground v.1.13,2013-05-20 13:36:00,
2013-05-20 09:42:00,69.6,68.7,30.03,North,357,0.0,0.0,97,0.00,,,0.15,Wunderground v.1.13,2013-05-20 13:42:00,
2013-05-20 09:48:00,69.6,68.7,30.04,North,357,0.0,0.0,97,0.00,,,0.15,Wunderground v.1.13,2013-05-20 13:48:00,
2013-05-20 09:54:00,69.8,68.9,30.04,North,357,0.0,0.0,97,0.00,,,0.15,Wunderground v.1.13,2013-05-20 13:54:00,
2013-05-20 10:00:00,69.8,68.9,30.04,North,357,0.0,0.0,97,0.00,,,0.15,Wunderground v.1.13,2013-05-20 14:00:00,
2013-05-20 10:06:00,69.8,68.9,30.04,North,357,0.0,0.0,97,0.00,,,0.15,Wunderground v.1.13,2013-05-20 14:06:00,
2013-05-20 10:14:00,69.8,68.9,30.04,North,357,0.0,0.0,97,0.00,,,0.15,Wunderground v.1.13,2013-05-20 14:14:00,
2013-05-20 10:20:00,69.8,68.9,30.04,North,357,0.0,0.0,97,0.00,,,0.15,Wunderground v.1.13,2013-05-20 14:20:00,
2013-05-20 10:26:00,69.8,68.9,30.04,North,357,0.0,0.0,97,0.00,,,0.16,Wunderground v.1.13,2013-05-20 14:26:00,
2013-05-20 10:32:00,69.6,68.7,30.04,North,357,0.0,0.0,97,0.00,,,0.16,Wunderground v.1.13,2013-05-20 14:32:00,
2013-05-20 10:40:00,69.9,69.0,30.04,North,357,0.0,0.0,97,0.00,,,0.16,Wunderground v.1.13,2013-05-20 14:40:00,
2013-05-20 10:46:00,70.1,69.2,30.04,North,357,0.0,0.0,97,0.00,,,0.16,Wunderground v.1.13,2013-05-20 14:46:00,
2013-05-20 10:52:00,70.1,69.2,30.04,North,357,0.0,0.0,97,0.00,,,0.16,Wunderground v.1.13,2013-05-20 14:52:00,
2013-05-20 10:58:00,69.9,69.0,30.04,North,357,0.0,0.0,97,0.00,,,0.16,Wunderground v.1.13,2013-05-20 14:58:00,
2013-05-20 11:04:00,69.8,68.9,30.04,North,357,0.0,0.0,97,0.00,,,0.16,Wunderground v.1.13,2013-05-20 15:04:00,
2013-05-20 11:10:00,69.8,68.9,30.04,North,357,0.0,0.0,97,0.00,,,0.16,Wunderground v.1.13,2013-05-20 15:10:00,
2013-05-20 11:16:00,70.3,69.4,30.04,North,357,0.0,0.0,97,0.00,,,0.16,Wunderground v.1.13,2013-05-20 15:16:00,
2013-05-20 11:22:00,70.4,69.5,30.04,North,357,0.0,0.0,97,0.00,,,0.16,Wunderground v.1.13,2013-05-20 15:22:00,
2013-05-20 11:28:00,70.6,69.7,30.04,North,357,0.0,0.0,97,0.00,,,0.16,Wunderground v.1.13,2013-05-20 15:28:00,
2013-05-20 11:34:00,70.8,69.9,30.04,North,357,0.0,0.0,97,0.00,,,0.17,Wunderground v.1.13,2013-05-20 15:34:00,
2013-05-20 11:40:00,70.1,68.9,30.04,North,357,0.0,0.0,96,0.00,,,0.17,Wunderground v.1.13,2013-05-20 15:40:00,
2013-05-20 11:46:00,70.9,69.7,30.04,North,357,0.0,0.0,96,0.00,,,0.17,Wunderground v.1.13,2013-05-20 15:46:00,
2013-05-20 11:52:00,71.3,69.8,30.04,North,357,0.0,0.0,95,0.00,,,0.17,Wunderground v.1.13,2013-05-20 15:52:00,
2013-05-20 11:58:00,71.5,69.7,30.04,North,357,0.0,0.0,94,0.00,,,0.17,Wunderground v.1.13,2013-05-20 15:58:00,
2013-05-20 12:04:00,71.8,70.3,30.03,North,357,0.0,0.0,95,0.00,,,0.17,Wunderground v.1.13,2013-05-20 16:04:00,
2013-05-20 12:10:00,71.6,70.1,30.03,North,357,0.0,0.0,95,0.00,,,0.17,Wunderground v.1.13,2013-05-20 16:10:00,
2013-05-20 12:16:00,71.1,69.6,30.03,North,357,0.0,0.0,95,0.00,,,0.17,Wunderground v.1.13,2013-05-20 16:16:00,
2013-05-20 12:22:00,71.1,69.6,30.03,North,357,0.0,0.0,95,0.00,,,0.17,Wunderground v.1.13,2013-05-20 16:22:00,
2013-05-20 12:28:00,71.6,70.1,30.03,North,357,0.0,0.0,95,0.00,,,0.17,Wunderground v.1.13,2013-05-20 16:28:00,
2013-05-20 12:34:00,71.6,69.8,30.02,North,357,0.0,0.0,94,0.00,,,0.17,Wunderground v.1.13,2013-05-20 16:34:00,
2013-05-20 12:40:00,72.0,69.9,30.02,North,357,0.0,0.0,93,0.00,,,0.17,Wunderground v.1.13,2013-05-20 16:40:00,
2013-05-20 12:46:00,72.1,70.0,30.02,North,357,0.0,0.0,93,0.00,,,0.17,Wunderground v.1.13,2013-05-20 16:46:00,
2013-05-20 12:52:00,72.5,69.7,30.02,North,357,0.0,0.0,91,0.00,,,0.17,Wunderground v.1.13,2013-05-20 16:52:00,
2013-05-20 12:58:00,72.7,69.6,30.02,North,357,0.0,0.0,90,0.00,,,0.17,Wunderground v.1.13,2013-05-20 16:58:00,
2013-05-20 13:04:00,72.7,70.2,30.01,North,357,0.0,0.0,92,0.00,,,0.17,Wunderground v.1.13,2013-05-20 17:04:00,
2013-05-20 13:10:00,72.5,69.7,30.01,North,357,0.0,0.0,91,0.00,,,0.17,Wunderground v.1.13,2013-05-20 17:10:00,
2013-05-20 13:16:00,72.7,69.6,30.00,North,357,0.0,0.0,90,0.00,,,0.17,Wunderground v.1.13,2013-05-20 17:16:00,
2013-05-20 13:24:00,73.0,68.9,30.00,North,357,0.0,0.0,87,0.00,,,0.17,Wunderground v.1.13,2013-05-20 17:24:00,
2013-05-20 13:30:00,73.3,70.2,30.00,North,357,0.0,0.0,90,0.00,,,0.17,Wunderground v.1.13,2013-05-20 17:30:00,
2013-05-20 13:36:00,74.0,69.2,30.00,North,357,0.0,0.0,85,0.00,,,0.17,Wunderground v.1.13,2013-05-20 17:36:00,
2013-05-20 13:42:00,74.0,68.9,30.00,North,357,0.0,0.0,84,0.00,,,0.17,Wunderground v.1.13,2013-05-20 17:42:00,
2013-05-20 13:48:00,73.9,68.8,30.00,North,357,0.0,0.0,84,0.00,,,0.17,Wunderground v.1.13,2013-05-20 17:48:00,
2013-05-20 13:54:00,75.3,70.1,30.00,West,275,0.0,0.0,84,0.00,,,0.17,Wunderground v.1.13,2013-05-20 17:54:00,
2013-05-20 14:00:00,75.6,70.4,30.00,West,275,0.0,0.0,84,0.00,,,0.17,Wunderground v.1.13,2013-05-20 18:00:00,
2013-05-20 14:06:00,75.1,69.9,29.99,West,275,0.0,0.0,84,0.00,,,0.17,Wunderground v.1.13,2013-05-20 18:06:00,
2013-05-20 14:12:00,74.7,69.2,29.99,West,275,0.0,0.0,83,0.00,,,0.17,Wunderground v.1.13,2013-05-20 18:12:00,
2013-05-20 14:18:00,74.9,69.4,29.99,West,275,0.0,0.0,83,0.00,,,0.17,Wunderground v.1.13,2013-05-20 18:18:00,
2013-05-20 14:24:00,74.9,69.7,29.99,West,275,0.0,0.0,84,0.00,,,0.17,Wunderground v.1.13,2013-05-20 18:24:00,
2013-05-20 14:30:00,74.9,69.0,29.99,West,275,0.0,0.0,82,0.00,,,0.17,Wunderground v.1.13,2013-05-20 18:30:00,
2013-05-20 14:36:00,74.9,69.7,29.99,West,275,0.0,0.0,84,0.00,,,0.17,Wunderground v.1.13,2013-05-20 18:36:00,
2013-05-20 14:42:00,75.4,69.5,29.99,NNW,337,0.0,0.0,82,0.00,,,0.17,Wunderground v.1.13,2013-05-20 18:42:00,
2013-05-20 14:48:00,75.4,69.9,29.98,NNW,337,0.0,0.0,83,0.00,,,0.17,Wunderground v.1.13,2013-05-20 18:48:00,
2013-05-20 14:54:00,75.8,70.6,29.98,NNW,337,0.0,0.0,84,0.00,,,0.17,Wunderground v.1.13,2013-05-20 18:54:00,
2013-05-20 15:00:00,75.3,70.1,29.98,NNW,337,0.0,0.0,84,0.00,,,0.17,Wunderground v.1.13,2013-05-20 19:00:00,
2013-05-20 15:06:00,75.1,69.6,29.99,NNW,337,0.0,0.0,83,0.00,,,0.17,Wunderground v.1.13,2013-05-20 19:06:00,
2013-05-20 15:12:00,75.1,69.9,29.99,NNW,337,0.0,0.0,84,0.00,,,0.17,Wunderground v.1.13,2013-05-20 19:12:00,
2013-05-20 15:18:00,75.4,69.5,29.98,NNW,337,0.0,0.0,82,0.00,,,0.17,Wunderground v.1.13,2013-05-20 19:18:00,
2013-05-20 15:24:00,74.9,67.6,29.98,NNW,337,0.0,0.0,78,0.00,,,0.17,Wunderground v.1.13,2013-05-20 19:24:00,
2013-05-20 15:30:00,74.2,68.0,29.98,NNW,332,0.0,0.0,81,0.00,,,0.17,Wunderground v.1.13,2013-05-20 19:30:00,
2013-05-20 15:36:00,73.5,67.7,29.98,NNW,332,0.0,0.0,82,0.00,,,0.17,Wunderground v.1.13,2013-05-20 19:36:00,
2013-05-20 15:42:00,73.5,67.7,29.98,NNW,332,0.0,0.0,82,0.00,,,0.17,Wunderground v.1.13,2013-05-20 19:42:00,
2013-05-20 15:48:00,73.3,68.2,30.00,NNW,333,0.0,0.0,84,0.38,,,0.20,Wunderground v.1.13,2013-05-20 19:48:00,
2013-05-20 15:54:00,73.2,68.4,30.00,North,6,0.0,0.0,85,0.45,,,0.24,Wunderground v.1.13,2013-05-20 19:54:00,
2013-05-20 16:00:00,72.8,68.4,30.00,North,4,0.0,1.0,86,0.14,,,0.25,Wunderground v.1.13,2013-05-20 20:00:00,
2013-05-20 16:06:00,72.3,67.9,30.00,North,4,0.0,0.0,86,0.13,,,0.27,Wunderground v.1.13,2013-05-20 20:06:00,
2013-05-20 16:12:00,72.0,67.6,30.00,North,4,0.0,0.0,86,0.11,,,0.27,Wunderground v.1.13,2013-05-20 20:12:00,
2013-05-20 16:18:00,71.6,67.5,29.98,North,4,0.0,0.0,87,0.05,,,0.27,Wunderground v.1.13,2013-05-20 20:18:00,
2013-05-20 16:24:00,71.3,67.2,29.98,North,4,0.0,0.0,87,0.00,,,0.27,Wunderground v.1.13,2013-05-20 20:24:00,
2013-05-20 16:30:00,70.9,67.2,29.98,North,4,0.0,0.0,88,0.00,,,0.27,Wunderground v.1.13,2013-05-20 20:30:00,
2013-05-20 16:36:00,70.8,67.4,29.98,North,4,0.0,0.0,89,0.00,,,0.28,Wunderground v.1.13,2013-05-20 20:36:00,
2013-05-20 16:42:00,70.6,67.2,29.98,North,4,0.0,0.0,89,0.09,,,0.29,Wunderground v.1.13,2013-05-20 20:42:00,
2013-05-20 16:48:00,70.4,67.3,29.98,North,4,0.0,0.0,90,0.06,,,0.29,Wunderground v.1.13,2013-05-20 20:48:00,
2013-05-20 16:54:00,70.3,67.2,29.98,North,4,0.0,0.0,90,0.06,,,0.30,Wunderground v.1.13,2013-05-20 20:54:00,
2013-05-20 17:00:00,70.1,67.3,29.98,North,4,0.0,0.0,91,0.06,,,0.31,Wunderground v.1.13,2013-05-20 21:00:00,
2013-05-20 17:06:00,70.1,67.7,29.98,North,4,0.0,0.0,92,0.06,,,0.31,Wunderground v.1.13,2013-05-20 21:06:00,
2013-05-20 17:12:00,69.9,67.5,29.98,North,4,0.0,0.0,92,0.04,,,0.31,Wunderground v.1.13,2013-05-20 21:12:00,
2013-05-20 17:18:00,69.9,67.5,29.97,North,4,0.0,0.0,92,0.00,,,0.31,Wunderground v.1.13,2013-05-20 21:18:00,
2013-05-20 17:24:00,69.8,67.7,29.97,North,4,0.0,0.0,93,0.00,,,0.31,Wunderground v.1.13,2013-05-20 21:24:00,
2013-05-20 17:30:00,69.8,67.7,29.97,North,4,0.0,0.0,93,0.00,,,0.32,Wunderground v.1.13,2013-05-20 21:30:00,
2013-05-20 17:36:00,69.8,67.7,29.97,North,4,0.0,0.0,93,0.00,,,0.32,Wunderground v.1.13,2013-05-20 21:36:00,
2013-05-20 17:42:00,69.8,67.7,29.97,North,4,0.0,0.0,93,0.00,,,0.32,Wunderground v.1.13,2013-05-20 21:42:00,
2013-05-20 17:48:00,69.8,67.7,29.97,North,4,0.0,0.0,93,0.00,,,0.32,Wunderground v.1.13,2013-05-20 21:48:00,
2013-05-20 17:54:00,69.8,67.7,29.97,North,4,0.0,0.0,93,0.00,,,0.32,Wunderground v.1.13,2013-05-20 21:54:00,
2013-05-20 18:00:00,69.9,68.1,29.97,North,4,0.0,0.0,94,0.00,,,0.32,Wunderground v.1.13,2013-05-20 22:00:00,
2013-05-20 18:06:00,70.1,68.3,29.97,North,4,0.0,0.0,94,0.00,,,0.32,Wunderground v.1.13,2013-05-20 22:06:00,
2013-05-20 18:12:00,70.1,68.3,29.97,North,4,0.0,0.0,94,0.00,,,0.32,Wunderground v.1.13,2013-05-20 22:12:00,
2013-05-20 18:18:00,70.3,68.5,29.97,North,4,0.0,0.0,94,0.00,,,0.32,Wunderground v.1.13,2013-05-20 22:18:00,
2013-05-20 18:24:00,70.3,68.5,29.97,North,4,0.0,0.0,94,0.00,,,0.32,Wunderground v.1.13,2013-05-20 22:24:00,
2013-05-20 18:30:00,70.3,68.8,29.97,North,4,0.0,0.0,95,0.00,,,0.32,Wunderground v.1.13,2013-05-20 22:30:00,
2013-05-20 18:36:00,70.4,68.9,29.97,North,4,0.0,0.0,95,0.00,,,0.32,Wunderground v.1.13,2013-05-20 22:36:00,
2013-05-20 18:42:00,70.4,68.9,29.97,North,4,0.0,0.0,95,0.00,,,0.32,Wunderground v.1.13,2013-05-20 22:42:00,
2013-05-20 18:48:00,70.4,68.9,29.96,North,4,0.0,0.0,95,0.00,,,0.32,Wunderground v.1.13,2013-05-20 22:48:00,
2013-05-20 18:54:00,70.4,68.9,29.96,North,4,0.0,0.0,95,0.00,,,0.32,Wunderground v.1.13,2013-05-20 22:54:00,
2013-05-20 19:00:00,70.4,68.9,29.96,North,4,0.0,0.0,95,0.00,,,0.32,Wunderground v.1.13,2013-05-20 23:00:00,
2013-05-20 19:06:00,70.6,69.1,29.96,North,4,0.0,0.0,95,0.00,,,0.32,Wunderground v.1.13,2013-05-20 23:06:00,
2013-05-20 19:12:00,70.6,69.1,29.96,North,4,0.0,0.0,95,0.00,,,0.32,Wunderground v.1.13,2013-05-20 23:12:00,
2013-05-20 19:18:00,70.6,69.1,29.95,North,4,0.0,0.0,95,0.00,,,0.32,Wunderground v.1.13,2013-05-20 23:18:00,
2013-05-20 19:24:00,70.6,69.1,29.95,North,4,0.0,0.0,95,0.00,,,0.32,Wunderground v.1.13,2013-05-20 23:24:00,
2013-05-20 19:30:00,70.6,69.1,29.95,North,4,0.0,0.0,95,0.00,,,0.32,Wunderground v.1.13,2013-05-20 23:30:00,
2013-05-20 19:36:00,70.6,69.1,29.96,North,4,0.0,0.0,95,0.00,,,0.32,Wunderground v.1.13,2013-05-20 23:36:00,
2013-05-20 19:42:00,70.6,69.1,29.96,North,4,0.0,0.0,95,0.00,,,0.33,Wunderground v.1.13,2013-05-20 23:42:00,
2013-05-20 19:48:00,70.6,69.1,29.96,North,4,0.0,0.0,95,0.00,,,0.33,Wunderground v.1.13,2013-05-20 23:48:00,
2013-05-20 19:54:00,70.4,68.9,29.96,North,4,0.0,0.0,95,0.00,,,0.33,Wunderground v.1.13,2013-05-20 23:54:00,
2013-05-20 20:00:00,70.4,68.9,29.96,North,4,0.0,0.0,95,0.00,,,0.33,Wunderground v.1.13,2013-05-21 00:00:00,
2013-05-20 20:06:00,70.4,68.9,29.96,North,4,0.0,0.0,95,0.00,,,0.33,Wunderground v.1.13,2013-05-21 00:06:00,
2013-05-20 20:12:00,70.3,68.5,29.96,North,4,0.0,0.0,94,0.00,,,0.33,Wunderground v.1.13,2013-05-21 00:12:00,
2013-05-20 20:18:00,70.3,68.5,29.97,North,4,0.0,0.0,94,0.00,,,0.33,Wunderground v.1.13,2013-05-21 00:18:00,
2013-05-20 20:24:00,70.3,68.5,29.97,North,4,0.0,0.0,94,0.00,,,0.33,Wunderground v.1.13,2013-05-21 00:24:00,
2013-05-20 20:30:00,70.1,68.3,29.97,North,4,0.0,0.0,94,0.00,,,0.33,Wunderground v.1.13,2013-05-21 00:30:00,
2013-05-20 20:36:00,70.1,68.3,29.97,North,4,0.0,0.0,94,0.00,,,0.33,Wunderground v.1.13,2013-05-21 00:36:00,
2013-05-20 20:42:00,69.9,68.1,29.97,North,4,0.0,0.0,94,0.00,,,0.33,Wunderground v.1.13,2013-05-21 00:42:00,
2013-05-20 20:48:00,69.9,68.1,29.98,North,4,0.0,0.0,94,0.00,,,0.33,Wunderground v.1.13,2013-05-21 00:48:00,
2013-05-20 20:54:00,69.8,68.0,29.98,North,4,0.0,0.0,94,0.00,,,0.33,Wunderground v.1.13,2013-05-21 00:54:00,
2013-05-20 21:00:00,69.8,68.0,29.98,North,4,0.0,0.0,94,0.00,,,0.33,Wunderground v.1.13,2013-05-21 01:00:00,
2013-05-20 21:06:00,69.6,67.8,29.98,North,4,0.0,0.0,94,0.00,,,0.33,Wunderground v.1.13,2013-05-21 01:06:00,
2013-05-20 21:12:00,69.4,67.6,29.98,North,4,0.0,0.0,94,0.00,,,0.33,Wunderground v.1.13,2013-05-21 01:12:00,
2013-05-20 21:18:00,69.4,67.6,29.97,North,4,0.0,0.0,94,0.00,,,0.33,Wunderground v.1.13,2013-05-21 01:18:00,
2013-05-20 21:24:00,69.3,67.5,29.97,North,4,0.0,0.0,94,0.00,,,0.33,Wunderground v.1.13,2013-05-21 01:24:00,
2013-05-20 21:30:00,69.1,67.3,29.97,North,4,0.0,0.0,94,0.00,,,0.33,Wunderground v.1.13,2013-05-21 01:30:00,
2013-05-20 21:36:00,68.9,67.1,29.98,North,4,0.0,0.0,94,0.00,,,0.33,Wunderground v.1.13,2013-05-21 01:36:00,
2013-05-20 21:42:00,68.9,67.1,29.98,North,4,0.0,0.0,94,0.00,,,0.33,Wunderground v.1.13,2013-05-21 01:42:00,
2013-05-20 21:48:00,68.8,67.3,29.98,North,4,0.0,0.0,95,0.00,,,0.33,Wunderground v.1.13,2013-05-21 01:48:00,
2013-05-20 21:54:00,68.8,67.3,29.98,North,4,0.0,0.0,95,0.00,,,0.33,Wunderground v.1.13,2013-05-21 01:54:00,
2013-05-20 22:00:00,68.6,67.1,29.98,North,4,0.0,0.0,95,0.00,,,0.33,Wunderground v.1.13,2013-05-21 02:00:00,
2013-05-20 22:06:00,68.6,67.1,29.98,North,4,0.0,0.0,95,0.00,,,0.33,Wunderground v.1.13,2013-05-21 02:06:00,
2013-05-20 22:12:00,68.4,66.9,29.98,North,4,0.0,0.0,95,0.00,,,0.33,Wunderground v.1.13,2013-05-21 02:12:00,
2013-05-20 22:18:00,68.4,66.9,29.98,North,4,0.0,0.0,95,0.00,,,0.33,Wunderground v.1.13,2013-05-21 02:18:00,
2013-05-20 22:24:00,68.4,66.9,29.98,North,4,0.0,0.0,95,0.00,,,0.33,Wunderground v.1.13,2013-05-21 02:24:00,
2013-05-20 22:30:00,68.3,66.8,29.98,North,4,0.0,0.0,95,0.00,,,0.33,Wunderground v.1.13,2013-05-21 02:30:00,
2013-05-20 22:36:00,68.3,66.8,29.98,North,4,0.0,0.0,95,0.00,,,0.33,Wunderground v.1.13,2013-05-21 02:36:00,
2013-05-20 22:42:00,68.3,66.8,29.98,North,4,0.0,0.0,95,0.00,,,0.33,Wunderground v.1.13,2013-05-21 02:42:00,
2013-05-20 22:48:00,68.1,66.6,29.98,North,4,0.0,0.0,95,0.00,,,0.33,Wunderground v.1.13,2013-05-21 02:48:00,
2013-05-20 22:54:00,68.1,66.6,29.98,North,4,0.0,0.0,95,0.00,,,0.33,Wunderground v.1.13,2013-05-21 02:54:00,
2013-05-20 23:00:00,68.1,66.6,29.98,North,4,0.0,0.0,95,0.00,,,0.33,Wunderground v.1.13,2013-05-21 03:00:00,
2013-05-20 23:06:00,68.1,66.6,29.97,North,4,0.0,0.0,95,0.00,,,0.33,Wunderground v.1.13,2013-05-21 03:06:00,
2013-05-20 23:12:00,68.1,66.6,29.97,North,4,0.0,0.0,95,0.00,,,0.33,Wunderground v.1.13,2013-05-21 03:12:00,
2013-05-20 23:18:00,68.1,66.6,29.96,North,4,0.0,0.0,95,0.00,,,0.33,Wunderground v.1.13,2013-05-21 03:18:00,
2013-05-20 23:24:00,68.1,66.9,29.96,North,4,0.0,0.0,96,0.00,,,0.33,Wunderground v.1.13,2013-05-21 03:24:00,
2013-05-20 23:30:00,67.9,66.7,29.96,North,4,0.0,0.0,96,0.00,,,0.33,Wunderground v.1.13,2013-05-21 03:30:00,
2013-05-20 23:36:00,67.9,66.7,29.96,North,4,0.0,0.0,96,0.00,,,0.33,Wunderground v.1.13,2013-05-21 03:36:00,
2013-05-20 23:42:00,67.9,66.7,29.96,North,4,0.0,0.0,96,0.00,,,0.33,Wunderground v.1.13,2013-05-21 03:42:00,
2013-05-20 23:48:00,67.9,66.7,29.95,North,4,0.0,0.0,96,0.00,,,0.33,Wunderground v.1.13,2013-05-21 03:48:00,
2013-05-20 23:54:00,68.1,66.9,29.95,North,4,0.0,0.0,96,0.00,,,0.33,Wunderground v.1.13,2013-05-21 03:54:00,